Time,TemperatureF,DewpointF,PressureIn,WindDirection,WindDirectionDegrees,WindSpeedMPH,WindSpeedGustMPH,Humidity,HourlyPrecipIn,Conditions,Clouds,dailyrainin,SoftwareType,DateUTC
2013-02-26 00:02:00,16.4,12.1,30.02,North,351,0.0,0.0,83,0.00,,,0.00,VWS V14.01,2013-02-26 06:02:00,
2013-02-26 00:12:00,16.1,11.9,30.02,North,351,0.0,0.0,83,0.00,,,0.00,VWS V14.01,2013-02-26 06:12:00,
2013-02-26 00:22:00,15.4,11.2,30.03,North,351,0.0,0.0,83,0.00,,,0.00,VWS V14.01,2013-02-26 06:22:00,
2013-02-26 00:27:00,15.2,11.0,30.03,North,351,0.0,0.0,83,0.00,,,0.00,VWS V14.01,2013-02-26 06:27:00,
2013-02-26 00:32:00,15.1,10.9,30.02,North,351,0.0,0.0,83,0.00,,,0.00,VWS V14.01,2013-02-26 06:32:00,
2013-02-26 00:37:00,15.1,10.9,30.02,North,351,0.0,0.0,83,0.00,,,0.00,VWS V14.01,2013-02-26 06:37:00,
2013-02-26 00:42:00,15.1,11.1,30.02,North,351,0.0,0.0,84,0.00,,,0.00,VWS V14.01,2013-02-26 06:42:00,
2013-02-26 00:47:00,15.1,11.1,30.03,North,351,0.0,0.0,84,0.00,,,0.00,VWS V14.01,2013-02-26 06:47:00,
2013-02-26 00:52:00,14.9,10.7,30.03,North,351,0.0,0.0,83,0.00,,,0.00,VWS V14.01,2013-02-26 06:52:00,
2013-02-26 00:57:00,14.6,10.4,30.03,North,351,0.0,0.0,83,0.00,,,0.00,VWS V14.01,2013-02-26 06:57:00,
2013-02-26 01:07:00,14.4,10.5,30.02,North,351,0.0,0.0,84,0.00,,,0.00,VWS V14.01,2013-02-26 07:07:00,
2013-02-26 01:12:00,14.3,10.4,30.02,North,351,0.0,0.0,84,0.00,,,0.00,VWS V14.01,2013-02-26 07:12:00,
2013-02-26 01:17:00,14.3,10.1,30.02,North,351,0.0,0.0,83,0.00,,,0.00,VWS V14.01,2013-02-26 07:17:00,
2013-02-26 01:22:00,14.0,9.8,30.02,North,351,0.0,0.0,83,0.00,,,0.00,VWS V14.01,2013-02-26 07:22:00,
2013-02-26 01:27:00,14.0,9.8,30.02,North,351,0.0,0.0,83,0.00,,,0.00,VWS V14.01,2013-02-26 07:27:00,
2013-02-26 01:37:00,14.0,10.1,30.03,North,351,0.0,0.0,84,0.00,,,0.00,VWS V14.01,2013-02-26 07:37:00,
2013-02-26 01:47:00,13.6,9.4,30.02,North,351,0.0,0.0,83,0.00,,,0.00,VWS V14.01,2013-02-26 07:47:00,
2013-02-26 01:57:00,13.1,8.9,30.02,North,351,0.0,0.0,83,0.00,,,0.00,VWS V14.01,2013-02-26 07:57:00,
2013-02-26 02:02:00,12.9,9.0,30.01,North,351,0.0,0.0,84,0.00,,,0.00,VWS V14.01,2013-02-26 08:02:00,
2013-02-26 02:07:00,12.9,9.0,30.01,North,351,0.0,0.0,84,0.00,,,0.00,VWS V14.01,2013-02-26 08:07:00,
2013-02-26 02:12:00,12.9,9.0,30.01,North,351,0.0,0.0,84,0.00,,,0.00,VWS V14.01,2013-02-26 08:12:00,
2013-02-26 02:22:00,12.9,9.0,30.00,North,351,0.0,0.0,84,0.00,,,0.00,VWS V14.01,2013-02-26 08:22:00,
2013-02-26 02:27:00,12.8,8.9,30.00,North,351,0.0,0.0,84,0.00,,,0.00,VWS V14.01,2013-02-26 08:27:00,
2013-02-26 02:32:00,12.8,8.9,30.00,North,351,0.0,0.0,84,0.00,,,0.00,VWS V14.01,2013-02-26 08:32:00,
2013-02-26 02:37:00,12.6,8.7,30.00,North,351,0.0,0.0,84,0.00,,,0.00,VWS V14.01,2013-02-26 08:37:00,
2013-02-26 02:42:00,12.6,8.7,30.00,North,351,0.0,0.0,84,0.00,,,0.00,VWS V14.01,2013-02-26 08:42:00,
2013-02-26 02:47:00,12.4,8.5,30.00,North,351,0.0,0.0,84,0.00,,,0.00,VWS V14.01,2013-02-26 08:47:00,
2013-02-26 02:57:00,12.8,8.9,30.00,North,351,0.0,0.0,84,0.00,,,0.00,VWS V14.01,2013-02-26 08:57:00,
2013-02-26 03:02:00,12.6,8.7,30.00,North,351,0.0,0.0,84,0.00,,,0.00,VWS V14.01,2013-02-26 09:02:00,
2013-02-26 03:12:00,12.4,8.5,30.00,North,351,0.0,0.0,84,0.00,,,0.00,VWS V14.01,2013-02-26 09:12:00,
2013-02-26 03:22:00,12.6,8.7,30.00,North,351,0.0,0.0,84,0.00,,,0.00,VWS V14.01,2013-02-26 09:22:00,
2013-02-26 03:27:00,12.6,8.7,30.00,North,351,0.0,0.0,84,0.00,,,0.00,VWS V14.01,2013-02-26 09:27:00,
2013-02-26 03:37:00,12.4,8.5,30.00,North,351,0.0,0.0,84,0.00,,,0.00,VWS V14.01,2013-02-26 09:37:00,
2013-02-26 03:42:00,12.3,8.4,30.00,North,351,0.0,0.0,84,0.00,,,0.00,VWS V14.01,2013-02-26 09:42:00,
2013-02-26 03:47:00,12.4,8.8,29.99,North,351,0.0,0.0,85,0.00,,,0.00,VWS V14.01,2013-02-26 09:47:00,
2013-02-26 03:52:00,12.9,9.2,29.99,North,351,0.0,0.0,85,0.00,,,0.00,VWS V14.01,2013-02-26 09:52:00,
2013-02-26 04:02:00,14.1,10.7,29.99,North,351,0.0,0.0,86,0.00,,,0.00,VWS V14.01,2013-02-26 10:02:00,
2013-02-26 04:07:00,14.3,10.9,29.99,North,351,0.0,0.0,86,0.00,,,0.00,VWS V14.01,2013-02-26 10:07:00,
2013-02-26 04:12:00,14.4,11.0,29.99,North,351,0.0,0.0,86,0.00,,,0.00,VWS V14.01,2013-02-26 10:12:00,
2013-02-26 04:17:00,14.1,10.4,29.99,North,351,0.0,0.0,85,0.00,,,0.00,VWS V14.01,2013-02-26 10:17:00,
2013-02-26 04:22:00,14.0,10.3,29.99,North,351,0.0,2.0,85,0.00,,,0.00,VWS V14.01,2013-02-26 10:22:00,
2013-02-26 04:27:00,14.0,10.6,29.99,North,351,1.0,3.0,86,0.00,,,0.00,VWS V14.01,2013-02-26 10:27:00,
2013-02-26 04:32:00,14.0,10.6,29.99,North,351,0.0,1.0,86,0.00,,,0.00,VWS V14.01,2013-02-26 10:32:00,
2013-02-26 04:37:00,14.0,10.6,29.99,North,351,0.0,0.0,86,0.00,,,0.00,VWS V14.01,2013-02-26 10:37:00,
2013-02-26 04:42:00,14.0,10.6,29.99,North,351,0.0,0.0,86,0.00,,,0.00,VWS V14.01,2013-02-26 10:42:00,
2013-02-26 04:47:00,14.0,10.6,29.98,North,351,0.0,0.0,86,0.00,,,0.00,VWS V14.01,2013-02-26 10:47:00,
2013-02-26 04:52:00,13.8,10.4,29.98,North,351,0.0,0.0,86,0.00,,,0.00,VWS V14.01,2013-02-26 10:52:00,
2013-02-26 04:57:00,13.6,10.2,29.98,North,351,0.0,0.0,86,0.00,,,0.00,VWS V14.01,2013-02-26 10:57:00,
2013-02-26 05:07:00,13.5,10.1,29.97,North,351,0.0,0.0,86,0.00,,,0.00,VWS V14.01,2013-02-26 11:07:00,
2013-02-26 05:12:00,13.5,10.1,29.97,North,351,0.0,0.0,86,0.00,,,0.00,VWS V14.01,2013-02-26 11:12:00,
2013-02-26 05:22:00,13.8,10.4,29.98,North,351,0.0,0.0,86,0.00,,,0.00,VWS V14.01,2013-02-26 11:22:00,
2013-02-26 05:27:00,13.6,10.2,29.98,North,351,0.0,0.0,86,0.00,,,0.00,VWS V14.01,2013-02-26 11:27:00,
2013-02-26 05:32:00,13.5,10.1,29.98,North,351,0.0,0.0,86,0.00,,,0.00,VWS V14.01,2013-02-26 11:32:00,
2013-02-26 05:37:00,13.5,10.1,29.98,North,351,0.0,0.0,86,0.00,,,0.00,VWS V14.01,2013-02-26 11:37:00,
2013-02-26 05:42:00,13.5,10.1,29.98,North,351,0.0,0.0,86,0.00,,,0.00,VWS V14.01,2013-02-26 11:42:00,
2013-02-26 05:47:00,13.5,10.1,29.98,North,351,0.0,0.0,86,0.00,,,0.00,VWS V14.01,2013-02-26 11:47:00,
2013-02-26 05:52:00,13.3,9.9,29.98,North,351,0.0,0.0,86,0.00,,,0.00,VWS V14.01,2013-02-26 11:52:00,
2013-02-26 06:02:00,12.8,9.4,29.98,North,351,0.0,0.0,86,0.00,,,0.00,VWS V14.01,2013-02-26 12:02:00,
2013-02-26 06:07:00,12.9,9.5,29.98,North,351,0.0,0.0,86,0.00,,,0.00,VWS V14.01,2013-02-26 12:07:00,
2013-02-26 06:12:00,12.8,9.4,29.98,North,351,0.0,2.0,86,0.00,,,0.00,VWS V14.01,2013-02-26 12:12:00,
2013-02-26 06:17:00,12.8,9.4,29.98,North,351,0.0,0.0,86,0.00,,,0.00,VWS V14.01,2013-02-26 12:17:00,
2013-02-26 06:22:00,12.8,9.4,29.98,North,351,0.0,0.0,86,0.00,,,0.00,VWS V14.01,2013-02-26 12:22:00,
2013-02-26 06:27:00,12.8,9.4,29.98,North,351,0.0,0.0,86,0.00,,,0.00,VWS V14.01,2013-02-26 12:27:00,
2013-02-26 06:32:00,12.8,9.4,29.99,North,351,0.0,0.0,86,0.00,,,0.00,VWS V14.01,2013-02-26 12:32:00,
2013-02-26 06:37:00,12.8,9.4,29.99,North,351,0.0,0.0,86,0.00,,,0.00,VWS V14.01,2013-02-26 12:37:00,
2013-02-26 06:42:00,12.8,9.4,29.99,North,351,0.0,0.0,86,0.00,,,0.00,VWS V14.01,2013-02-26 12:42:00,
2013-02-26 06:47:00,12.6,9.2,29.98,North,351,0.0,0.0,86,0.00,,,0.00,VWS V14.01,2013-02-26 12:47:00,
2013-02-26 06:52:00,12.6,9.2,29.98,North,351,0.0,0.0,86,0.00,,,0.00,VWS V14.01,2013-02-26 12:52:00,
2013-02-26 07:02:00,12.6,9.2,29.98,North,351,0.0,0.0,86,0.00,,,0.00,VWS V14.01,2013-02-26 13:02:00,
2013-02-26 07:07:00,12.8,9.4,29.98,North,351,0.0,0.0,86,0.00,,,0.00,VWS V14.01,2013-02-26 13:07:00,
2013-02-26 07:12:00,12.8,9.4,29.98,North,351,0.0,0.0,86,0.00,,,0.00,VWS V14.01,2013-02-26 13:12:00,
2013-02-26 07:17:00,12.8,9.4,29.98,North,351,0.0,0.0,86,0.00,,,0.00,VWS V14.01,2013-02-26 13:17:00,
2013-02-26 07:27:00,12.9,9.5,29.98,North,351,0.0,0.0,86,0.00,,,0.00,VWS V14.01,2013-02-26 13:27:00,
2013-02-26 07:32:00,13.1,9.7,29.98,North,351,0.0,0.0,86,0.00,,,0.00,VWS V14.01,2013-02-26 13:32:00,
2013-02-26 07:42:00,13.8,10.4,29.98,North,351,0.0,0.0,86,0.00,,,0.00,VWS V14.01,2013-02-26 13:42:00,
2013-02-26 07:47:00,14.1,10.9,29.98,North,351,0.0,0.0,87,0.00,,,0.00,VWS V14.01,2013-02-26 13:47:00,
2013-02-26 07:52:00,14.6,11.4,29.98,North,355,0.0,2.0,87,0.00,,,0.00,VWS V14.01,2013-02-26 13:52:00,
2013-02-26 07:57:00,15.1,11.9,29.98,NE,50,0.0,2.0,87,0.00,,,0.00,VWS V14.01,2013-02-26 13:57:00,
2013-02-26 08:02:00,15.6,12.4,29.98,NE,50,0.0,3.0,87,0.00,,,0.00,VWS V14.01,2013-02-26 14:02:00,
2013-02-26 08:12:00,16.5,13.3,29.98,NE,44,2.0,2.0,87,0.00,,,0.00,VWS V14.01,2013-02-26 14:12:00,
2013-02-26 08:17:00,16.9,13.7,29.98,NE,44,0.0,2.0,87,0.00,,,0.00,VWS V14.01,2013-02-26 14:17:00,
2013-02-26 08:27:00,17.5,14.3,29.98,NE,44,0.0,0.0,87,0.00,,,0.00,VWS V14.01,2013-02-26 14:27:00,
2013-02-26 08:32:00,18.0,15.1,29.98,NNE,27,0.0,3.0,88,0.00,,,0.00,VWS V14.01,2013-02-26 14:32:00,
2013-02-26 08:37:00,18.4,15.4,29.98,NNE,14,0.0,2.0,88,0.00,,,0.00,VWS V14.01,2013-02-26 14:37:00,
2013-02-26 08:42:00,18.9,15.9,29.98,NNE,14,0.0,0.0,88,0.00,,,0.00,VWS V14.01,2013-02-26 14:42:00,
2013-02-26 08:47:00,19.2,16.2,29.98,NNE,16,0.0,0.0,88,0.00,,,0.00,VWS V14.01,2013-02-26 14:47:00,
2013-02-26 08:52:00,19.5,16.5,29.98,ENE,70,1.0,3.0,88,0.00,,,0.00,VWS V14.01,2013-02-26 14:52:00,
2013-02-26 08:57:00,19.9,16.9,29.98,ENE,70,0.0,1.0,88,0.00,,,0.00,VWS V14.01,2013-02-26 14:57:00,
2013-02-26 09:02:00,20.3,17.3,29.98,ENE,68,2.0,2.0,88,0.00,,,0.00,VWS V14.01,2013-02-26 15:02:00,
2013-02-26 09:07:00,20.8,17.8,29.98,ENE,61,2.0,5.0,88,0.00,,,0.00,VWS V14.01,2013-02-26 15:07:00,
2013-02-26 09:12:00,21.1,18.1,29.98,ENE,63,0.0,3.0,88,0.00,,,0.00,VWS V14.01,2013-02-26 15:12:00,
2013-02-26 09:17:00,21.6,18.6,29.98,ENE,63,0.0,2.0,88,0.00,,,0.00,VWS V14.01,2013-02-26 15:17:00,
2013-02-26 09:22:00,21.9,18.9,29.98,ENE,65,1.0,6.0,88,0.00,,,0.00,VWS V14.01,2013-02-26 15:22:00,
2013-02-26 09:32:00,22.7,19.4,29.98,ENE,64,1.0,6.0,87,0.00,,,0.00,VWS V14.01,2013-02-26 15:32:00,
2013-02-26 09:37:00,23.0,19.7,29.98,ENE,71,2.0,5.0,87,0.00,,,0.00,VWS V14.01,2013-02-26 15:37:00,
2013-02-26 09:42:00,23.3,20.0,29.98,NE,50,1.0,3.0,87,0.00,,,0.00,VWS V14.01,2013-02-26 15:42:00,
2013-02-26 09:47:00,23.8,20.2,29.98,NE,50,0.0,4.0,86,0.00,,,0.00,VWS V14.01,2013-02-26 15:47:00,
2013-02-26 09:57:00,24.7,21.1,29.98,ENE,60,2.0,2.0,86,0.00,,,0.00,VWS V14.01,2013-02-26 15:57:00,
2013-02-26 10:02:00,25.3,21.7,29.98,ENE,60,1.0,3.0,86,0.00,,,0.00,VWS V14.01,2013-02-26 16:02:00,
2013-02-26 10:07:00,25.6,21.7,29.98,ENE,60,1.0,3.0,85,0.00,,,0.00,VWS V14.01,2013-02-26 16:07:00,
2013-02-26 10:12:00,25.7,21.5,29.98,ENE,60,1.0,3.0,84,0.00,,,0.00,VWS V14.01,2013-02-26 16:12:00,
2013-02-26 10:22:00,26.0,21.6,29.98,ENE,59,0.0,3.0,83,0.00,,,0.00,VWS V14.01,2013-02-26 16:22:00,
2013-02-26 10:32:00,26.3,21.3,29.98,NE,34,2.0,5.0,81,0.00,,,0.00,VWS V14.01,2013-02-26 16:32:00,
2013-02-26 10:37:00,26.3,21.3,29.98,NE,45,0.0,3.0,81,0.00,,,0.00,VWS V14.01,2013-02-26 16:37:00,
2013-02-26 10:47:00,26.6,21.3,29.97,NE,43,2.0,6.0,80,0.00,,,0.00,VWS V14.01,2013-02-26 16:47:00,
2013-02-26 10:57:00,27.3,21.7,29.97,North,11,0.0,5.0,79,0.00,,,0.00,VWS V14.01,2013-02-26 16:57:00,
2013-02-26 11:02:00,27.6,21.6,29.97,ENE,63,2.0,6.0,78,0.00,,,0.00,VWS V14.01,2013-02-26 17:02:00,
2013-02-26 11:07:00,27.8,21.9,29.97,ENE,64,3.0,4.0,78,0.00,,,0.00,VWS V14.01,2013-02-26 17:07:00,
2013-02-26 11:17:00,28.2,21.9,29.97,ENE,65,0.0,6.0,77,0.00,,,0.00,VWS V14.01,2013-02-26 17:17:00,
2013-02-26 11:22:00,28.5,22.2,29.97,NNE,13,0.0,3.0,77,0.00,,,0.00,VWS V14.01,2013-02-26 17:22:00,
2013-02-26 11:27:00,28.8,22.5,29.97,NNE,17,3.0,4.0,77,0.00,,,0.00,VWS V14.01,2013-02-26 17:27:00,
2013-02-26 11:37:00,29.3,22.7,29.96,North,360,0.0,3.0,76,0.00,,,0.00,VWS V14.01,2013-02-26 17:37:00,
2013-02-26 11:42:00,29.4,22.8,29.96,North,5,3.0,4.0,76,0.00,,,0.00,VWS V14.01,2013-02-26 17:42:00,
2013-02-26 11:52:00,29.8,23.2,29.96,NE,46,3.0,5.0,76,0.00,,,0.00,VWS V14.01,2013-02-26 17:52:00,
2013-02-26 11:57:00,29.8,22.9,29.96,ENE,62,1.0,6.0,75,0.00,,,0.00,VWS V14.01,2013-02-26 17:57:00,
2013-02-26 12:02:00,30.1,23.1,29.95,North,5,1.0,5.0,75,0.00,,,0.00,VWS V14.01,2013-02-26 18:02:00,
2013-02-26 12:07:00,30.3,23.3,29.95,NE,44,3.0,4.0,75,0.00,,,0.00,VWS V14.01,2013-02-26 18:07:00,
2013-02-26 12:17:00,30.9,23.9,29.94,North,355,2.0,7.0,75,0.00,,,0.00,VWS V14.01,2013-02-26 18:17:00,
2013-02-26 12:22:00,31.0,23.7,29.94,NE,44,1.0,6.0,74,0.00,,,0.00,VWS V14.01,2013-02-26 18:22:00,
2013-02-26 12:27:00,31.2,23.9,29.94,North,10,5.0,6.0,74,0.00,,,0.00,VWS V14.01,2013-02-26 18:27:00,
2013-02-26 12:32:00,31.3,24.0,29.93,North,9,6.0,10.0,74,0.00,,,0.00,VWS V14.01,2013-02-26 18:32:00,
2013-02-26 12:37:00,31.6,24.3,29.93,North,5,1.0,7.0,74,0.00,,,0.00,VWS V14.01,2013-02-26 18:37:00,
2013-02-26 12:42:00,31.9,24.2,29.93,NE,56,1.0,6.0,73,0.00,,,0.00,VWS V14.01,2013-02-26 18:42:00,
2013-02-26 12:47:00,32.2,24.2,29.93,NE,55,3.0,4.0,72,0.00,,,0.00,VWS V14.01,2013-02-26 18:47:00,
2013-02-26 12:52:00,32.5,24.5,29.93,North,355,6.0,7.0,72,0.00,,,0.00,VWS V14.01,2013-02-26 18:52:00,
2013-02-26 13:02:00,33.2,24.8,29.92,North,9,6.0,6.0,71,0.00,,,0.00,VWS V14.01,2013-02-26 19:02:00,
2013-02-26 13:07:00,33.5,24.4,29.92,NNE,13,4.0,7.0,69,0.00,,,0.00,VWS V14.01,2013-02-26 19:07:00,
2013-02-26 13:12:00,33.8,24.4,29.92,NNE,29,2.0,6.0,68,0.00,,,0.00,VWS V14.01,2013-02-26 19:12:00,
2013-02-26 13:17:00,33.8,24.4,29.91,NE,43,1.0,10.0,68,0.00,,,0.00,VWS V14.01,2013-02-26 19:17:00,
2013-02-26 13:27:00,34.7,25.2,29.91,NE,34,2.0,6.0,68,0.00,,,0.00,VWS V14.01,2013-02-26 19:27:00,
2013-02-26 13:32:00,34.7,24.5,29.91,NE,44,3.0,7.0,66,0.00,,,0.00,VWS V14.01,2013-02-26 19:32:00,
2013-02-26 13:37:00,34.6,24.8,29.91,ENE,58,4.0,9.0,67,0.00,,,0.00,VWS V14.01,2013-02-26 19:37:00,
2013-02-26 13:47:00,34.7,24.9,29.91,NE,34,3.0,7.0,67,0.00,,,0.00,VWS V14.01,2013-02-26 19:47:00,
2013-02-26 13:52:00,34.7,24.9,29.91,NE,44,4.0,7.0,67,0.00,,,0.00,VWS V14.01,2013-02-26 19:52:00,
2013-02-26 14:02:00,34.9,25.1,29.91,NE,36,1.0,7.0,67,0.00,,SCT024,0.00,VWS V14.01,2013-02-26 20:02:00,
2013-02-26 14:07:00,35.2,25.4,29.91,ENE,58,2.0,6.0,67,0.00,,SCT024,0.00,VWS V14.01,2013-02-26 20:07:00,
2013-02-26 14:12:00,35.2,25.4,29.91,North,5,4.0,6.0,67,0.00,,SCT024,0.00,VWS V14.01,2013-02-26 20:12:00,
2013-02-26 14:22:00,35.2,25.4,29.89,NNE,25,2.0,6.0,67,0.00,,BKN024,0.00,VWS V14.01,2013-02-26 20:22:00,
2013-02-26 14:32:00,35.3,25.5,29.89,NNW,336,9.0,11.0,67,0.00,,BKN024,0.00,VWS V14.01,2013-02-26 20:32:00,
2013-02-26 14:37:00,35.2,25.4,29.89,NE,50,4.0,13.0,67,0.00,,BKN024,0.00,VWS V14.01,2013-02-26 20:37:00,
2013-02-26 14:47:00,35.0,25.2,29.88,NE,36,5.0,10.0,67,0.00,,BKN024,0.00,VWS V14.01,2013-02-26 20:47:00,
2013-02-26 14:52:00,35.0,25.5,29.88,NNW,338,5.0,10.0,68,0.00,,BKN024,0.00,VWS V14.01,2013-02-26 20:52:00,
2013-02-26 14:57:00,34.9,25.1,29.88,NNE,21,5.0,12.0,67,0.00,,BKN024,0.00,VWS V14.01,2013-02-26 20:57:00,
2013-02-26 15:02:00,34.9,25.4,29.89,North,5,6.0,7.0,68,0.00,,OVC024,0.00,VWS V14.01,2013-02-26 21:02:00,
2013-02-26 15:12:00,34.9,25.4,29.89,NNE,29,4.0,8.0,68,0.00,,OVC024,0.00,VWS V14.01,2013-02-26 21:12:00,
2013-02-26 15:17:00,34.7,25.2,29.89,North,9,7.0,8.0,68,0.00,,OVC024,0.00,VWS V14.01,2013-02-26 21:17:00,
2013-02-26 15:22:00,34.7,25.2,29.89,NNE,17,5.0,11.0,68,0.00,,OVC024,0.00,VWS V14.01,2013-02-26 21:22:00,
2013-02-26 15:32:00,34.7,25.2,29.88,North,11,3.0,11.0,68,0.00,,OVC024,0.00,VWS V14.01,2013-02-26 21:32:00,
2013-02-26 15:37:00,34.7,25.2,29.88,NNE,21,6.0,7.0,68,0.00,,OVC024,0.00,VWS V14.01,2013-02-26 21:37:00,
2013-02-26 15:42:00,34.7,24.9,29.88,NE,40,2.0,7.0,67,0.00,,OVC024,0.00,VWS V14.01,2013-02-26 21:42:00,
2013-02-26 15:47:00,34.9,25.1,29.88,North,5,4.0,7.0,67,0.01,,OVC024,0.01,VWS V14.01,2013-02-26 21:47:00,
2013-02-26 15:52:00,34.9,25.1,29.88,North,11,9.0,10.0,67,0.01,,OVC024,0.01,VWS V14.01,2013-02-26 21:52:00,
2013-02-26 16:02:00,34.9,25.4,29.88,NNE,13,2.0,11.0,68,0.01,,BKN026,0.01,VWS V14.01,2013-02-26 22:02:00,
2013-02-26 16:12:00,35.0,25.2,29.88,NE,38,6.0,7.0,67,0.01,,BKN026,0.01,VWS V14.01,2013-02-26 22:12:00,
2013-02-26 16:17:00,34.9,25.1,29.88,NE,49,0.0,8.0,67,0.01,,FEW028,0.01,VWS V14.01,2013-02-26 22:17:00,
2013-02-26 16:22:00,34.9,25.4,29.88,NE,34,1.0,11.0,68,0.01,,FEW028,0.01,VWS V14.01,2013-02-26 22:22:00,
2013-02-26 16:27:00,35.0,25.5,29.88,North,5,3.0,10.0,68,0.01,,FEW028,0.01,VWS V14.01,2013-02-26 22:27:00,
2013-02-26 16:32:00,35.0,25.2,29.87,North,11,3.0,10.0,67,0.01,,FEW028,0.01,VWS V14.01,2013-02-26 22:32:00,
2013-02-26 16:37:00,35.0,25.5,29.87,NNE,15,6.0,10.0,68,0.01,,FEW028,0.01,VWS V14.01,2013-02-26 22:37:00,
2013-02-26 16:47:00,35.0,25.5,29.86,NNW,338,4.0,7.0,68,0.01,,FEW028,0.01,VWS V14.01,2013-02-26 22:47:00,
2013-02-26 16:57:00,35.0,25.5,29.86,North,9,3.0,5.0,68,0.00,,FEW028,0.01,VWS V14.01,2013-02-26 22:57:00,
2013-02-26 17:02:00,35.2,25.7,29.86,North,355,1.0,6.0,68,0.00,,CLR,0.01,VWS V14.01,2013-02-26 23:02:00,
2013-02-26 17:07:00,35.3,25.8,29.86,NNE,18,2.0,9.0,68,0.00,,CLR,0.01,VWS V14.01,2013-02-26 23:07:00,
2013-02-26 17:12:00,35.3,25.5,29.86,NNW,348,3.0,5.0,67,0.00,,CLR,0.01,VWS V14.01,2013-02-26 23:12:00,
2013-02-26 17:17:00,35.5,25.6,29.86,North,5,0.0,6.0,67,0.00,,CLR,0.01,VWS V14.01,2013-02-26 23:17:00,
2013-02-26 17:22:00,35.5,25.6,29.86,North,360,2.0,7.0,67,0.00,,CLR,0.01,VWS V14.01,2013-02-26 23:22:00,
2013-02-26 17:27:00,35.5,25.3,29.86,North,9,3.0,7.0,66,0.00,,CLR,0.01,VWS V14.01,2013-02-26 23:27:00,
2013-02-26 17:32:00,35.3,25.1,29.86,NNE,15,3.0,6.0,66,0.00,,CLR,0.01,VWS V14.01,2013-02-26 23:32:00,
2013-02-26 17:37:00,35.3,25.1,29.86,North,5,4.0,6.0,66,0.00,,CLR,0.01,VWS V14.01,2013-02-26 23:37:00,
2013-02-26 17:42:00,35.2,25.0,29.86,NNE,16,2.0,9.0,66,0.00,,CLR,0.01,VWS V14.01,2013-02-26 23:42:00,
2013-02-26 17:47:00,35.2,25.0,29.86,North,355,3.0,7.0,66,0.00,,CLR,0.01,VWS V14.01,2013-02-26 23:47:00,
2013-02-26 17:52:00,35.0,25.2,29.86,North,360,9.0,9.0,67,0.00,,CLR,0.01,VWS V14.01,2013-02-26 23:52:00,
2013-02-26 17:57:00,35.0,25.2,29.86,North,5,3.0,9.0,67,0.00,,CLR,0.01,VWS V14.01,2013-02-26 23:57:00,
2013-02-26 18:02:00,34.9,25.1,29.87,North,5,0.0,5.0,67,0.00,,CLR,0.01,VWS V14.01,2013-02-27 00:02:00,
2013-02-26 18:07:00,34.7,24.9,29.87,North,5,4.0,6.0,67,0.00,,CLR,0.01,VWS V14.01,2013-02-27 00:07:00,
2013-02-26 18:12:00,34.6,24.8,29.87,NNW,348,5.0,9.0,67,0.00,,CLR,0.01,VWS V14.01,2013-02-27 00:12:00,
2013-02-26 18:22:00,34.7,24.9,29.87,NNE,15,2.0,6.0,67,0.00,,CLR,0.01,VWS V14.01,2013-02-27 00:22:00,
2013-02-26 18:27:00,34.7,24.9,29.87,NNE,15,3.0,7.0,67,0.00,,CLR,0.01,VWS V14.01,2013-02-27 00:27:00,
2013-02-26 18:32:00,34.7,24.9,29.88,NNE,15,4.0,9.0,67,0.00,,CLR,0.01,VWS V14.01,2013-02-27 00:32:00,
2013-02-26 18:37:00,34.9,25.1,29.88,North,5,3.0,11.0,67,0.00,,CLR,0.01,VWS V14.01,2013-02-27 00:37:00,
2013-02-26 18:42:00,34.7,24.9,29.88,ENE,58,1.0,9.0,67,0.00,,CLR,0.01,VWS V14.01,2013-02-27 00:42:00,
2013-02-26 18:52:00,34.7,24.9,29.88,NE,39,5.0,10.0,67,0.00,,CLR,0.01,VWS V14.01,2013-02-27 00:52:00,
2013-02-26 18:57:00,34.6,25.1,29.88,NNE,19,2.0,9.0,68,0.00,,CLR,0.01,VWS V14.01,2013-02-27 00:57:00,
2013-02-26 19:02:00,34.4,25.0,29.88,North,360,3.0,7.0,68,0.00,,CLR,0.01,VWS V14.01,2013-02-27 01:02:00,
2013-02-26 19:07:00,34.3,24.9,29.88,NNE,24,3.0,6.0,68,0.00,,CLR,0.01,VWS V14.01,2013-02-27 01:07:00,
2013-02-26 19:17:00,34.0,24.9,29.88,NE,36,2.0,6.0,69,0.00,,CLR,0.01,VWS V14.01,2013-02-27 01:17:00,
2013-02-26 19:22:00,34.0,24.9,29.88,NE,45,0.0,7.0,69,0.00,,CLR,0.01,VWS V14.01,2013-02-27 01:22:00,
2013-02-26 19:27:00,33.8,25.1,29.88,NE,45,7.0,9.0,70,0.00,,CLR,0.01,VWS V14.01,2013-02-27 01:27:00,
2013-02-26 19:32:00,33.8,25.1,29.88,NNE,31,1.0,9.0,70,0.00,,CLR,0.01,VWS V14.01,2013-02-27 01:32:00,
2013-02-26 19:37:00,33.8,25.1,29.88,ENE,62,3.0,10.0,70,0.00,,CLR,0.01,VWS V14.01,2013-02-27 01:37:00,
2013-02-26 19:42:00,33.8,25.1,29.88,NE,42,3.0,13.0,70,0.00,,CLR,0.01,VWS V14.01,2013-02-27 01:42:00,
2013-02-26 19:47:00,33.7,25.0,29.88,NE,46,2.0,9.0,70,0.00,,CLR,0.01,VWS V14.01,2013-02-27 01:47:00,
2013-02-26 19:52:00,33.5,25.1,29.88,NNE,21,1.0,6.0,71,0.00,,CLR,0.01,VWS V14.01,2013-02-27 01:52:00,
2013-02-26 19:57:00,33.4,25.0,29.88,NE,36,3.0,7.0,71,0.00,,CLR,0.01,VWS V14.01,2013-02-27 01:57:00,
2013-02-26 20:02:00,33.4,25.0,29.88,NE,51,2.0,9.0,71,0.00,,CLR,0.01,VWS V14.01,2013-02-27 02:02:00,
2013-02-26 20:12:00,33.1,24.7,29.88,NNE,30,3.0,10.0,71,0.00,,CLR,0.01,VWS V14.01,2013-02-27 02:12:00,
2013-02-26 20:17:00,33.1,24.7,29.88,NE,43,4.0,9.0,71,0.00,,CLR,0.01,VWS V14.01,2013-02-27 02:17:00,
2013-02-26 20:22:00,33.1,24.7,29.88,NNE,17,3.0,10.0,71,0.00,,CLR,0.01,VWS V14.01,2013-02-27 02:22:00,
2013-02-26 20:27:00,32.9,24.5,29.88,NNE,23,4.0,11.0,71,0.00,,CLR,0.01,VWS V14.01,2013-02-27 02:27:00,
2013-02-26 20:37:00,32.7,24.7,29.88,NE,44,4.0,9.0,72,0.00,,CLR,0.01,VWS V14.01,2013-02-27 02:37:00,
2013-02-26 20:42:00,32.5,24.5,29.88,NE,42,4.0,6.0,72,0.00,,CLR,0.01,VWS V14.01,2013-02-27 02:42:00,
2013-02-26 20:47:00,32.4,24.4,29.87,NE,53,1.0,10.0,72,0.00,,CLR,0.01,VWS V14.01,2013-02-27 02:47:00,
2013-02-26 20:52:00,32.4,24.4,29.87,NE,45,2.0,8.0,72,0.00,,CLR,0.01,VWS V14.01,2013-02-27 02:52:00,
2013-02-26 20:57:00,32.2,24.2,29.87,NE,46,2.0,10.0,72,0.00,,CLR,0.01,VWS V14.01,2013-02-27 02:57:00,
2013-02-26 21:02:00,32.1,24.4,29.87,North,349,5.0,7.0,73,0.00,,CLR,0.01,VWS V14.01,2013-02-27 03:02:00,
2013-02-26 21:07:00,32.1,24.4,29.87,NNE,13,4.0,9.0,73,0.00,,CLR,0.01,VWS V14.01,2013-02-27 03:07:00,
2013-02-26 21:17:00,31.8,24.1,29.87,NE,50,4.0,10.0,73,0.00,,CLR,0.01,VWS V14.01,2013-02-27 03:17:00,
2013-02-26 21:22:00,31.8,24.1,29.87,NE,47,6.0,10.0,73,0.00,,CLR,0.01,VWS V14.01,2013-02-27 03:22:00,
2013-02-26 21:27:00,31.6,24.0,29.87,NNE,19,6.0,10.0,73,0.00,,CLR,0.01,VWS V14.01,2013-02-27 03:27:00,
2013-02-26 21:32:00,31.5,23.9,29.87,NNE,17,4.0,10.0,73,0.00,,CLR,0.01,VWS V14.01,2013-02-27 03:32:00,
2013-02-26 21:37:00,31.5,23.9,29.87,NE,40,3.0,8.0,73,0.00,,CLR,0.01,VWS V14.01,2013-02-27 03:37:00,
2013-02-26 21:42:00,31.3,23.7,29.87,NNE,31,4.0,8.0,73,0.00,,CLR,0.01,VWS V14.01,2013-02-27 03:42:00,
2013-02-26 21:47:00,31.2,23.2,29.87,NE,52,3.0,11.0,72,0.00,,CLR,0.01,VWS V14.01,2013-02-27 03:47:00,
2013-02-26 21:57:00,31.0,23.0,29.87,NE,35,5.0,10.0,72,0.00,,CLR,0.01,VWS V14.01,2013-02-27 03:57:00,
2013-02-26 22:02:00,30.9,23.0,29.86,NNE,22,5.0,12.0,72,0.00,,CLR,0.01,VWS V14.01,2013-02-27 04:02:00,
2013-02-26 22:12:00,30.9,23.0,29.86,NE,34,4.0,10.0,72,0.00,,CLR,0.01,VWS V14.01,2013-02-27 04:12:00,
2013-02-26 22:17:00,30.7,22.8,29.86,NNE,24,5.0,13.0,72,0.00,,CLR,0.01,VWS V14.01,2013-02-27 04:17:00,
2013-02-26 22:22:00,30.6,22.7,29.86,North,360,4.0,11.0,72,0.00,,CLR,0.01,VWS V14.01,2013-02-27 04:22:00,
2013-02-26 22:32:00,30.4,22.5,29.85,NE,38,4.0,7.0,72,0.00,,CLR,0.01,VWS V14.01,2013-02-27 04:32:00,
2013-02-26 22:37:00,30.3,22.4,29.85,NNE,23,4.0,10.0,72,0.00,,CLR,0.01,VWS V14.01,2013-02-27 04:37:00,
2013-02-26 22:42:00,30.3,22.4,29.85,NNE,16,4.0,10.0,72,0.00,,CLR,0.01,VWS V14.01,2013-02-27 04:42:00,
2013-02-26 22:47:00,30.3,22.4,29.85,NNE,32,1.0,8.0,72,0.00,,CLR,0.01,VWS V14.01,2013-02-27 04:47:00,
2013-02-26 22:57:00,30.1,22.2,29.85,NNE,30,4.0,11.0,72,0.00,,CLR,0.01,VWS V14.01,2013-02-27 04:57:00,
2013-02-26 23:02:00,30.1,22.5,29.85,NE,37,0.0,11.0,73,0.00,,CLR,0.01,VWS V14.01,2013-02-27 05:02:00,
2013-02-26 23:07:00,30.0,22.4,29.85,NE,50,0.0,9.0,73,0.00,,CLR,0.01,VWS V14.01,2013-02-27 05:07:00,
2013-02-26 23:12:00,30.0,22.4,29.85,North,9,2.0,6.0,73,0.00,,CLR,0.01,VWS V14.01,2013-02-27 05:12:00,
2013-02-26 23:17:00,30.0,22.4,29.85,NE,53,0.0,7.0,73,0.00,,CLR,0.01,VWS V14.01,2013-02-27 05:17:00,
2013-02-26 23:22:00,30.0,22.4,29.85,NE,55,3.0,6.0,73,0.00,,CLR,0.01,VWS V14.01,2013-02-27 05:22:00,
2013-02-26 23:27:00,29.8,22.2,29.85,ENE,59,0.0,9.0,73,0.00,,CLR,0.01,VWS V14.01,2013-02-27 05:27:00,
2013-02-26 23:32:00,29.7,22.1,29.85,NE,36,0.0,6.0,73,0.00,,CLR,0.01,VWS V14.01,2013-02-27 05:32:00,
2013-02-26 23:37:00,29.8,22.2,29.85,NNE,19,0.0,9.0,73,0.00,,CLR,0.01,VWS V14.01,2013-02-27 05:37:00,
2013-02-26 23:42:00,29.8,22.5,29.85,NE,43,4.0,7.0,74,0.00,,CLR,0.01,VWS V14.01,2013-02-27 05:42:00,
2013-02-26 23:47:00,29.8,22.5,29.85,NE,44,4.0,7.0,74,0.00,,CLR,0.01,VWS V14.01,2013-02-27 05:47:00,
2013-02-26 23:52:00,29.7,22.4,29.85,NNE,12,4.0,6.0,74,0.00,,CLR,0.01,VWS V14.01,2013-02-27 05:52:00,
2013-02-26 23:57:00,29.7,22.1,29.85,NE,42,5.0,5.0,73,0.00,,CLR,0.01,VWS V14.01,2013-02-27 05:57:00,